Theta_e
304 304 304 304 305 305 305 307 308 309 309 309 308 306 306 307 307 307 314 322 317 314 314 317 328 328 344 349 351 353 351 352 352 350 350 348 350 352 350 345 348 344 342 343 342
304 304 304 305 305 305 305 307 310 310 310 309 309 309 307 307 308 310 314 315 320 314 320 315 321 330 346 348 351 351 351 351 348 345 346 350 349 351 351 348 346 344 342 342 342
305 305 305 305 305 305 305 306 309 310 310 309 313 310 309 307 309 317 321 320 318 314 319 320 317 336 344 347 349 350 352 351 349 344 346 350 351 351 350 350 345 344 343 343 342
307 308 308 307 307 307 306 306 309 310 310 310 311 311 309 309 315 322 321 320 320 314 320 318 326 337 333 337 346 348 348 350 350 349 346 346 349 351 350 351 350 346 342 342 344
308 308 309 310 309 308 307 306 308 310 308 308 311 311 309 310 309 311 318 321 320 318 319 321 333 328 328 331 333 343 343 344 348 347 343 344 348 352 351 351 348 344 343 344 346
307 307 308 309 310 310 308 307 308 309 308 309 314 311 311 309 310 318 319 317 321 318 317 320 329 330 326 324 331 334 338 338 338 339 339 343 346 351 350 350 345 344 343 344 346
306 306 307 309 310 311 309 307 308 308 308 312 309 311 312 312 313 315 316 322 320 318 315 318 322 323 322 321 324 328 325 326 329 335 341 344 352 353 348 348 343 344 344 344 346
305 306 306 309 310 310 308 308 308 307 309 308 310 314 315 317 316 314 315 316 323 317 315 319 321 321 320 320 319 323 324 327 328 331 338 343 345 351 347 345 343 344 344 344 346
305 305 305 307 309 310 308 308 307 308 308 309 314 314 314 313 312 313 315 316 323 317 315 316 319 317 318 317 318 316 326 327 330 331 342 341 344 350 345 345 343 343 343 344 345
304 304 305 307 310 308 307 307 308 308 308 311 311 313 312 310 311 312 314 317 320 318 317 318 317 313 311 315 321 322 321 327 332 333 340 344 345 350 344 343 344 342 342 344 345
303 304 305 308 308 307 307 307 308 308 308 307 308 309 309 310 312 312 313 320 323 322 318 316 314 315 316 316 319 321 324 327 329 333 343 344 344 352 348 344 343 342 342 342 344
303 303 305 307 308 306 307 308 308 308 307 308 310 309 308 309 310 310 313 320 320 318 314 314 315 315 315 315 318 319 321 322 325 330 340 342 344 351 349 348 345 342 342 343 344
303 304 305 309 308 307 308 309 310 308 305 308 310 308 309 309 310 309 311 313 315 319 316 316 316 316 315 315 315 316 320 320 325 328 341 342 345 352 351 350 348 347 344 343 344
303 304 306 312 308 309 309 310 309 308 301 307 308 308 308 310 308 308 310 312 313 319 320 318 319 318 316 315 316 313 317 321 321 325 332 338 341 346 351 352 349 349 348 347 345
303 303 311 311 308 309 309 310 309 307 305 309 307 308 308 308 308 308 311 313 312 313 314 321 320 321 317 317 317 317 318 319 321 323 328 332 343 341 348 353 352 349 349 348 348
304 304 311 311 309 310 310 309 308 304 306 307 307 306 305 306 308 309 312 314 315 316 315 314 316 319 321 320 318 319 323 320 321 321 326 325 336 329 346 348 348 349 349 349 349
305 304 311 311 310 311 310 309 303 305 306 306 306 305 305 305 307 307 313 313 314 316 316 317 319 318 318 320 320 320 320 322 324 324 327 323 327 329 331 342 343 345 347 347 350
306 304 311 311 311 310 311 305 307 309 305 305 306 306 306 305 306 307 307 312 313 313 314 316 319 318 315 318 321 321 320 322 326 325 324 321 327 328 328 335 340 342 344 345 347
305 305 311 310 311 311 310 304 306 307 306 305 305 305 305 305 307 306 307 313 313 312 314 316 318 314 315 317 318 323 324 321 321 319 322 325 323 324 325 328 333 339 341 342 344
305 306 310 310 310 310 304 305 306 306 307 306 306 306 305 305 306 306 307 310 313 311 310 313 312 314 315 317 318 318 322 327 320 327 324 323 322 331 326 326 329 336 341 341 342
306 307 308 309 309 308 304 303 307 308 308 306 305 305 304 306 305 306 306 310 309 311 310 310 312 312 315 318 319 319 321 323 325 323 327 322 323 319 324 327 328 331 339 340 341
306 300 307 309 306 302 304 304 307 307 309 306 305 304 304 304 305 305 307 309 310 309 310 311 312 314 315 315 316 317 318 321 329 327 322 321 328 322 322 323 326 329 333 336 340
305 305 306 309 303 302 302 305 306 306 308 308 307 305 305 305 306 306 309 310 311 310 310 310 313 313 314 315 314 315 315 315 317 319 325 330 327 321 319 319 321 322 330 335 337
305 302 306 306 304 305 306 305 306 307 307 308 307 306 305 305 304 306 309 310 309 311 312 310 309 312 313 313 311 313 313 314 313 320 326 327 326 321 324 320 320 322 323 326 336
305 302 304 305 304 306 306 306 306 307 308 308 308 307 308 307 305 305 305 307 309 311 310 308 309 307 309 310 311 312 312 313 314 315 318 325 323 322 321 322 322 322 325 327 326
306 306 305 305 306 307 306 308 308 309 308 307 309 309 308 308 305 306 305 304 307 307 307 307 305 311 311 311 312 313 313 313 315 316 317 319 320 321 323 322 334 336 337 336 331
306 306 306 307 307 307 308 307 307 307 306 306 308 305 306 307 307 307 306 305 304 305 305 307 307 311 310 310 311 315 314 318 321 319 321 320 322 322 335 335 331 333 337 339 336
Wind_Speed
22 23 23 24 24 24 23 20 18 18 20 20 18 16 17 17 17 18 23 18 20 11 22 26 21 16 17 17 8 3 1 3 4 2 2 7 5 3 9 18 6 13 15 30 41
24 24 25 25 26 25 24 20 19 17 18 23 23 17 15 17 18 20 12 16 14 20 23 31 27 20 9 10 7 5 2 5 4 3 2 5 8 12 7 16 4 12 21 40 41
24 25 24 24 25 24 24 21 19 19 21 25 25 18 14 14 14 1 4 6 24 30 21 25 27 19 7 9 8 7 5 4 2 3 9 9 6 7 17 5 14 36 42 48 43
26 26 26 25 24 23 22 20 20 23 26 24 22 13 12 9 1 3 3 5 30 29 26 29 31 16 6 6 16 4 12 13 5 6 4 5 10 5 16 5 19 30 49 54 44
27 27 28 28 26 23 22 18 20 22 28 24 16 16 11 6 7 9 9 4 32 34 31 31 34 12 8 9 7 9 3 3 11 13 15 7 10 6 16 1 15 34 43 44 40
29 30 30 31 30 25 21 18 20 22 26 20 20 22 9 3 3 6 5 6 26 36 33 32 23 19 11 7 10 10 13 13 13 16 12 6 3 7 9 12 29 42 43 41 40
31 32 33 34 32 28 21 18 21 21 20 15 23 13 6 7 2 5 9 3 14 34 35 32 5 22 8 4 12 14 4 4 8 7 7 9 2 5 15 22 35 36 39 38 38
34 35 35 35 34 28 22 19 21 21 12 21 14 16 3 10 8 7 11 5 8 33 28 32 13 17 4 2 2 5 4 1 4 10 7 15 9 3 24 30 31 33 37 36 35
35 36 35 34 33 26 23 22 20 8 11 13 13 7 5 9 16 10 10 2 8 27 22 15 22 4 7 3 4 5 4 7 3 8 3 9 5 10 25 27 28 32 35 36 33
34 36 35 34 30 22 23 22 14 6 18 7 15 6 11 21 12 13 6 3 15 21 19 7 10 2 2 5 8 5 4 4 6 7 8 7 8 13 23 25 27 31 34 35 36
35 35 34 32 22 20 20 11 11 2 13 4 10 3 18 18 18 25 13 13 13 16 7 10 5 19 22 13 2 5 5 6 4 5 6 11 10 15 22 21 23 28 31 35 36
35 36 33 30 14 15 17 14 14 13 10 11 4 8 21 15 6 32 19 6 7 5 6 4 14 14 8 5 5 7 3 4 4 3 6 6 14 10 18 26 31 30 32 34 31
35 35 33 28 10 15 15 18 22 11 2 7 1 12 22 6 5 25 22 6 4 6 7 7 6 12 13 7 11 8 16 6 3 2 7 4 5 6 13 13 21 25 32 31 36
33 33 32 20 3 15 10 19 16 2 5 5 4 8 19 3 4 22 18 4 2 6 7 8 9 10 13 15 11 9 15 12 7 2 4 8 5 5 8 17 18 27 32 31 36
31 33 25 12 3 9 15 20 8 3 3 3 4 7 12 7 9 18 15 4 4 5 2 6 7 10 13 15 14 11 9 14 12 6 4 4 3 6 11 12 19 25 34 35 37
29 29 18 8 5 11 16 16 5 5 5 3 3 5 6 8 7 15 11 9 3 4 2 6 4 3 15 13 16 6 1 4 3 4 9 12 7 5 7 16 18 24 32 35 38
29 24 8 10 18 13 15 4 4 4 4 2 3 4 3 6 7 7 4 9 5 6 8 7 4 2 6 2 14 13 10 2 3 5 13 11 12 13 5 12 18 21 35 38 39
29 23 3 9 13 13 14 4 3 2 2 2 2 1 3 4 2 6 2 3 7 3 3 5 2 3 4 7 8 14 10 6 8 4 12 6 8 7 20 16 22 30 33 31 34
30 18 3 14 15 13 5 3 3 2 4 3 2 2 1 2 1 3 3 3 2 3 4 3 6 7 5 4 2 7 17 11 4 1 1 9 5 7 6 19 20 20 22 31 40
30 13 7 22 20 8 4 3 2 0 4 1 5 3 3 2 2 0 2 3 5 2 2 3 5 3 8 7 10 8 3 8 3 7 5 3 7 10 11 10 13 7 20 31 39
22 5 14 19 8 6 3 3 4 6 6 3 5 3 4 4 4 3 4 3 6 4 4 4 3 6 6 5 4 4 9 5 7 8 8 2 6 6 12 15 15 13 28 31 37
14 3 18 16 7 4 2 6 7 5 3 4 3 6 6 6 5 4 7 4 6 8 3 2 1 5 9 13 8 5 5 7 8 12 6 4 7 4 10 9 13 21 33 35 38
16 6 13 17 4 4 6 5 5 4 4 4 3 3 2 5 3 4 3 4 12 5 6 5 2 4 8 2 2 0 4 4 5 3 15 13 7 6 6 7 15 20 24 32 37
7 4 7 13 6 2 6 5 6 8 10 4 4 2 1 2 4 4 4 6 6 7 9 5 1 6 7 1 5 7 14 10 2 5 6 14 8 8 11 8 7 13 17 20 26
7 1 3 4 3 6 3 3 7 5 8 9 4 3 4 3 2 4 5 3 4 5 4 4 4 7 18 21 14 14 18 17 6 8 4 6 10 9 11 11 10 9 12 14 20
4 4 2 5 10 5 2 2 6 6 3 7 7 9 4 4 4 3 3 2 4 2 5 6 4 8 17 14 16 16 17 16 17 19 12 15 12 4 5 7 11 12 12 18 24
4 2 2 5 3 2 1 5 10 15 7 13 11 4 5 12 15 19 22 14 8 8 8 9 4 3 6 3 7 6 18 12 5 9 4 6 1 6 2 6 10 15 17 19 23
Wind_Direction
11 8 5 1 359 357 356 355 353 350 344 341 334 320 314 304 291 276 264 270 226 200 177 179 176 170 167 181 181 200 288 237 251 201 160 152 148 130 122 143 156 179 161 166 163
9 5 1 358 355 354 353 348 347 347 345 336 330 327 315 309 298 289 301 256 204 194 187 187 177 167 169 188 201 204 189 226 221 166 166 157 171 140 144 156 99 129 152 161 161
6 3 358 354 351 349 347 342 337 336 335 334 323 309 316 313 311 161 338 267 189 197 192 191 185 159 152 165 201 186 215 222 307 128 144 151 142 152 147 208 179 151 154 163 164
6 4 360 351 347 343 343 337 332 333 331 341 346 324 309 302 308 291 298 344 178 189 185 177 168 159 150 190 207 210 231 259 311 335 320 176 159 159 171 217 208 184 171 167 168
4 1 1 356 345 341 341 337 330 333 331 331 346 357 317 280 261 284 272 3 178 181 184 175 170 159 161 192 183 234 210 249 246 283 300 189 176 185 205 230 167 166 167 169 169
358 359 358 355 347 345 341 339 328 330 331 330 330 332 293 241 247 341 294 228 195 187 192 187 190 180 175 184 190 227 239 277 284 274 280 235 155 183 160 170 159 164 167 173 175
356 358 358 353 349 349 344 340 330 329 336 335 329 343 268 287 225 21 7 279 203 199 192 196 222 183 170 141 227 246 312 319 234 235 232 215 280 220 171 166 157 166 170 176 180
356 355 358 354 352 349 349 340 333 329 337 338 345 349 1 32 79 358 341 311 201 202 198 198 191 190 205 290 15 180 113 193 276 184 240 166 239 119 161 155 166 170 176 180 185
354 352 356 353 352 351 349 340 329 346 339 352 0 1 32 7 335 345 328 288 198 193 187 203 198 220 233 73 5 358 195 197 285 201 158 182 222 158 167 167 174 177 180 184 189
351 350 352 354 353 354 348 347 343 19 0 23 4 339 2 345 14 27 8 208 177 173 185 166 188 158 59 146 202 202 220 222 174 207 183 196 220 161 174 174 181 181 186 188 194
350 348 348 354 358 0 353 358 3 341 356 5 329 307 338 5 35 29 19 155 154 154 163 176 160 207 207 208 117 167 196 216 212 204 142 201 222 178 178 182 185 186 190 196 199
351 347 342 353 0 16 23 52 30 335 309 324 56 355 356 354 354 21 28 157 175 177 132 126 221 221 189 192 186 232 241 252 289 226 176 214 233 178 179 197 194 187 192 200 196
351 343 339 347 2 14 24 15 355 341 297 305 62 19 1 358 45 8 9 340 179 185 191 176 235 170 185 184 196 219 229 227 209 351 211 136 292 179 199 194 200 205 208 200 198
348 341 337 348 56 19 14 353 343 321 54 284 0 16 3 344 64 17 15 1 295 216 176 233 234 197 197 204 174 213 216 239 254 320 218 166 259 234 184 197 202 205 208 203 202
348 341 343 357 3 6 340 345 348 140 354 17 15 24 17 50 330 358 8 55 352 308 106 222 197 201 207 211 182 236 162 206 230 212 299 226 197 257 186 202 209 208 210 209 206
349 345 348 357 8 340 342 345 126 52 241 3 63 1 16 8 17 339 4 39 67 312 255 241 251 198 221 212 201 175 331 136 117 138 236 226 213 255 191 210 214 213 213 209 207
347 346 1 20 355 336 343 342 42 153 351 36 344 16 78 348 358 358 46 26 48 25 11 335 245 179 249 223 199 180 157 267 228 201 234 207 223 233 197 220 210 204 211 210 208
345 339 271 354 348 337 349 50 188 36 44 5 30 68 105 1 348 340 48 70 24 68 68 359 275 21 13 196 200 202 180 170 196 193 228 182 225 238 225 239 222 218 213 206 206
347 348 209 326 317 328 353 59 184 207 311 307 325 107 330 324 94 355 27 115 112 353 99 27 274 328 287 331 1 211 210 194 99 240 178 202 243 294 243 220 229 225 199 202 205
348 347 14 325 319 274 81 230 183 338 317 145 196 196 191 246 147 114 231 138 141 208 230 161 291 284 310 312 222 196 259 197 198 196 241 263 193 228 198 224 234 207 195 209 208
355 10 352 352 30 68 103 274 300 317 335 236 216 240 208 184 185 212 219 162 129 171 109 157 164 294 353 230 235 189 226 267 179 200 213 173 245 217 192 200 222 209 216 212 208
1 5 352 6 48 31 29 315 310 282 322 296 228 210 195 189 210 235 213 151 141 143 126 165 196 265 242 265 289 318 278 236 224 221 234 146 247 207 210 213 223 216 218 226 221
345 325 9 24 61 349 326 299 275 314 323 313 289 197 165 197 219 224 211 124 142 139 167 173 96 312 300 299 72 131 323 319 288 312 214 222 238 267 237 250 244 238 229 224 224
1 8 15 52 80 54 336 322 312 300 293 262 280 306 91 242 243 222 211 179 146 140 141 113 152 210 250 29 21 302 301 322 15 271 253 232 229 198 262 247 255 252 243 231 227
17 75 39 342 324 319 242 267 297 314 350 342 298 191 67 275 277 226 231 152 83 143 89 108 244 247 261 270 275 268 275 287 268 246 232 251 219 233 220 231 249 235 261 264 243
28 9 358 272 289 301 314 245 288 306 329 286 257 280 280 249 227 307 316 108 204 129 138 179 243 276 276 255 249 262 262 262 258 252 246 260 265 327 314 274 336 350 317 286 267
342 303 265 270 277 279 263 319 315 305 260 260 287 319 257 250 249 258 258 249 230 165 176 175 209 253 258 293 315 274 237 228 93 32 305 237 269 310 349 41 17 358 346 310 295